Volver al catálogo

STARLINK-11485

ActivoComunicacionesVLEO
NORAD 62229·PAYLOAD·🇺🇸 United States

Lanzado Dec 5, 2024 desde Vandenberg Space Force Base

Loading…

Próximos Pases (próximas 24 horas)

TLE

ActualizadoSource: CelesTrak SupGP

Época: Sep 15, 2026, 02:15 UTC

1 62229C 24231M   26258.09423611  .00002812  00000+0  23138-4 0  2583
2 62229  53.1578 247.4646 0001249  98.1655 168.3793 15.69732251    14

Sigue STARLINK-11485 en tiempo real con AllMySat

Download on the App Store